TIME,DELAY(SENSOR),PRES,T(CTD),SAL,OXYGEN,RAWTEMP,T(OPTODE),TCPHASE,TURBIDITY,TURBIDITY_GAIN,FLUOR,BETA,CDOM,ED411.5,ED443.8,ED489.6,PAR,COMP,TILT,TILTY(TILT),CHECK
1341848274,6468,217.3999938964843800,4.9660000801086430,34.9748001098632800,362.0264892578125000,653.2194213867188000,4.9453949928283690,32.4344100952148440,16,3,49,111,62,2147640557,2147395446,2147306202,2148323747,29,2,-4,2096
1341848336,6467,213.9199981689453000,4.9665999412536620,34.9742012023925800,362.1130065917969000,653.2086181640625000,4.9457440376281740,32.4314994812011700,10,3,50,109,62,2147636850,2147397673,2147304616,2148322454,3229,2,-4,56353
1341848398,6468,210.4100036621093800,4.9664998054504395,34.9743995666503900,362.0739135742187500,653.1981201171875000,4.9460849761962890,32.4325714111328100,16,3,50,105,62,2147635606,2147396150,2147307066,2148325270,2961,2,-4,34677
1341848460,6467,206.8999938964843800,4.9668998718261720,34.9743003845214840,362.0946960449219000,653.1843261718750000,4.9465332031250000,32.4317092895507800,16,3,49,109,62,2147633988,2147396301,2147308644,2148325123,2717,2,-4,37386
1341848522,6468,203.4299926757812500,4.9667000770568850,34.9740982055664060,362.0636901855469000,653.1898193359375000,4.9463582038879395,32.4326515197753900,16,3,48,111,62,2147636694,2147397645,2147312186,2148324704,2518,2,-4,61563
1341848584,6467,200.0700073242187500,4.9670000076293945,34.9743995666503900,362.1062011718750000,653.1749877929688000,4.9468379020690920,32.4311714172363300,34,3,49,115,62,2147639862,2147401179,2147325252,2148322646,2334,2,-4,5733
1341848646,6467,196.6399993896484400,4.9678001403808590,34.9740982055664060,362.2690124511719000,653.1525268554688000,4.9475708007812500,32.4254798889160160,16,3,48,116,61,2147637196,2147398518,2147324200,2148324538,2137,2,-4,15472
1341848708,6468,193.2400054931640600,4.9679999351501465,34.9743003845214840,362.2222900390625000,653.1320190429688000,4.9482378959655760,32.4266700744628900,16,3,49,117,63,2147636095,2147397860,2147324218,2148324657,1951,2,-4,24998
1341848770,6467,189.8600006103515600,4.9692001342773440,34.9738006591796900,362.3656005859375000,653.1157836914062000,4.9487648010253910,32.4215888977050800,16,3,50,109,62,2147636296,2147401101,2147322413,2148328192,1810,2,-4,41496
1341848835,6469,186.3300018310547000,4.9690999984741210,34.9742012023925800,362.5289916992187500,653.1126708984375000,4.9488639831542970,32.4166488647460940,16,3,50,109,63,2147636845,2147398957,2147328831,2148326536,1671,2,-6,51639
1341848899,6465,182.8500061035156200,4.9693999290466310,34.9738006591796900,362.6205139160156000,653.1077270507812000,4.9490261077880860,32.4134712219238300,16,3,49,108,64,2147637234,2147397832,2147331277,2148327561,1486,2,-4,25942
1341848961,6468,179.5200042724609400,4.9700999259948730,34.9734001159668000,362.6502990722656000,653.0958251953125000,4.9494128227233890,32.4122200012207000,16,3,50,106,62,2147633375,2147399382,2147331217,2148325146,1266,2,-5,8585
1341849025,6469,176.0800018310547000,4.9699997901916500,34.9734001159668000,362.8906860351562500,653.0906982421875000,4.9495787620544430,32.4043388366699200,16,3,48,111,62,2147637677,2147402112,2147341352,2148326737,981,2,-4,48451
1341849087,6468,172.7599945068359400,4.9702000617980960,34.9738998413085940,363.0997924804687500,653.0670776367188000,4.9503459930419920,32.3974113464355500,16,3,50,113,64,2147637608,2147402989,2147352045,2148329403,745,2,-4,3407
1341849151,6468,169.3399963378906200,4.9723000526428220,34.9734992980957000,363.2820129394531000,653.0128784179688000,4.9521098136901855,32.3906211853027340,51,3,48,113,62,2147638532,2147407547,2147364338,2148329055,522,2,-6,56808
1341849213,6468,166.0599975585937500,4.9738998413085940,34.9734001159668000,363.4468078613281000,652.9710083007812000,4.9534740447998050,32.3848609924316400,16,3,49,130,62,2147632736,2147408073,2147385420,2148333338,189,2,-4,5837
1341849277,6469,162.7200012207031200,4.9738001823425290,34.9739990234375000,363.5397033691406000,652.9572753906250000,4.9539198875427250,32.3815307617187500,16,3,48,110,61,2147636342,2147416154,2147414454,2148340768,3523,2,-5,7239
1341849339,6468,159.5200042724609400,4.9745001792907715,34.9734992980957000,363.4642028808594000,652.9404296875000000,4.9544720649719240,32.3836097717285160,16,3,49,109,62,2147638074,2147412730,2147397357,2148334724,3303,2,-6,30699
1341849403,6466,156.3000030517578000,4.9776000976562500,34.9729995727539060,363.5744018554687500,652.8626708984375000,4.9569988250732420,32.3787803649902340,16,3,50,112,62,2147638655,2147410865,2147392136,2148333787,3014,2,-4,63740
1341849465,6467,153.2599945068359400,4.9784002304077150,34.9734992980957000,363.8322143554687500,652.8137817382812000,4.9585900306701660,32.3695602416992200,16,3,49,107,62,2147637087,2147413261,2147408812,2148338829,2828,2,-4,13718
1341849529,6467,150.1799926757812500,4.9795999526977540,34.9735984802246100,363.8519897460937500,652.7791137695312000,4.9597210884094240,32.3683509826660160,52,3,50,113,62,2147635648,2147419003,2147453311,2148342482,2587,2,-5,57757
1341849591,6469,147.2400054931640600,4.9833998680114750,34.9734001159668000,363.8783874511719000,652.6738281250000000,4.9631419181823730,32.3655014038085940,16,3,50,116,62,2147635853,2147421713,2147453498,2148342152,2450,2,-6,25013
1341849655,6467,144.2599945068359400,4.9874000549316410,34.9737014770507800,363.6608886718750000,652.5631103515625000,4.9667448997497560,32.3706283569335940,11,3,49,114,62,2147637558,2147416337,2147429416,2148341768,2357,2,-5,41750
1341849717,6470,141.3999938964843800,4.9932999610900880,34.9737014770507800,363.5747070312500000,652.3864746093750000,4.9724879264831540,32.3698806762695300,16,3,49,113,63,2147635112,2147420310,2147433928,2148342541,2194,2,-4,34030
1341849781,6467,138.4600067138672000,4.9955000877380370,34.9732017517089840,363.5440063476562500,652.3201904296875000,4.9746460914611820,32.3698310852050800,16,3,48,130,62,2147641028,2147421887,2147437640,2148342820,1954,2,-5,15811
1341849843,6467,135.6199951171875000,5.0103001594543460,34.9747009277343750,363.2633056640625000,651.8607788085938000,4.9895877838134770,32.3705711364746100,15,3,49,114,62,2147640268,2147424557,2147468228,2148344100,1722,2,-6,40748
1341849907,6468,132.6600036621093800,5.0135002136230470,34.9752006530761700,363.0401000976562500,651.7352294921875000,4.9936709403991700,32.3753700256347660,10,3,50,110,62,2147639620,2147435432,2147507771,2148351561,1573,2,-6,56264
1341849969,6468,129.7299957275390600,5.0159001350402830,34.9744987487793000,362.8075866699219000,651.6856079101562000,4.9952850341796875,32.3819198608398440,15,3,49,112,63,2147638770,2147447039,2147572932,2148359953,1449,2,-4,9074
1341850033,6469,126.6200027465820300,5.0171999931335450,34.9753990173339840,362.7976074218750000,651.6013183593750000,4.9980278015136720,32.3809013366699200,16,3,50,109,62,2147638395,2147454162,2147603538,2148363341,1282,2,-5,42917
1341850095,6467,123.5199966430664000,5.0342998504638670,34.9767990112304700,362.5892028808594000,651.1179809570312000,5.0137419700622560,32.3785400390625000,39,3,50,122,62,2147644035,2147471058,2147691236,2148375185,1141,2,-6,33200
1341850159,6467,120.2399978637695300,5.0436000823974610,34.9771003723144500,362.4825134277344000,650.8228759765625000,5.0233359336853030,32.3768806457519500,16,3,50,115,62,2147643811,2147468657,2147660036,2148373142,830,2,-5,15948
1341850221,6466,117.0299987792968800,5.0492000579833980,34.9772987365722660,362.3279113769531000,650.6450195312500000,5.0291209220886230,32.3786888122558600,16,3,50,118,62,2147644639,2147482605,2147717919,2148380315,404,2,-5,27795
1341850285,6466,113.7500000000000000,5.0609002113342285,34.9784011840820300,362.1729125976562500,650.2736206054688000,5.0411968231201170,32.3768501281738300,16,3,50,122,62,2147647158,2147494879,2147776538,2148389453,3578,2,-6,3272
1341850347,6469,110.6200027465820300,5.0678000450134280,34.9798011779785160,361.9346923828125000,650.0803222656250000,5.0474781990051270,32.3809700012207000,15,3,50,136,62,2147645484,2147491748,2147741641,2148386120,3385,2,-6,19156
1341850411,6469,107.4599990844726600,5.0806999206542970,34.9805984497070300,361.6289978027344000,649.7102050781250000,5.0595049858093260,32.3841209411621100,16,3,50,125,62,2147647935,2147501274,2147771529,2148392177,3212,2,-6,24647
1341850473,6466,104.4700012207031200,5.0879001617431640,34.9813003540039060,361.6679077148437500,649.4840698242188000,5.0668530464172360,32.3787498474121100,16,3,52,115,62,2147646408,2147516762,2147825101,2148402760,2975,2,-6,4630
1341850537,6468,101.4499969482421900,5.1131000518798830,34.9821014404296900,361.1608886718750000,648.8262939453125000,5.0882282257080080,32.3831787109375000,24,3,52,118,64,2147652941,2147538719,2147916813,2148417704,2874,2,-6,58813
1341850599,6468,98.6600036621093800,5.1205000877380370,34.9832000732421900,361.0138854980469000,648.4633178710938000,5.1000227928161620,32.3815307617187500,16,3,52,142,63,2147657091,2147570541,2148043771,2148436511,2666,2,-4,37003
1341850663,6468,95.8199996948242200,5.1336998939514160,34.9847984313964840,360.5993957519531000,648.0582885742188000,5.1131758689880370,32.3876609802246100,15,3,52,119,62,2147663473,2147589321,2148117754,2148452488,2517,2,-6,1176
1341850725,6467,93.0899963378906200,5.1536002159118650,34.9861984252929700,360.2876892089844000,647.3342285156250000,5.1366939544677730,32.3844299316406250,16,3,54,133,62,2147670363,2147633929,2148287739,2148479770,2448,2,-6,56439
1341850789,6467,90.3000030517578100,5.1778001785278320,34.9884986877441400,360.0963134765625000,646.8225708007812000,5.1533050537109375,32.3816490173339840,16,3,56,121,62,2147678121,2147673878,2148425983,2148504571,2244,2,-6,10602
1341850851,6468,87.5999984741211000,5.1791000366210940,34.9888000488281250,359.9191894531250000,646.6901855468750000,5.1576042175292970,32.3848190307617200,16,3,56,123,62,2147688776,2147717705,2148567163,2148533791,2197,2,-5,25348
1341850915,6467,84.8099975585937500,5.1810998916625980,34.9888992309570300,359.8811950683594000,646.5933227539062000,5.1607508659362790,32.3843917846679700,16,3,55,124,62,2147696392,2147771436,2148766559,2148569170,2122,2,-4,48959
1341850977,6468,82.0800018310546900,5.1971001625061035,34.9906005859375000,359.8286132812500000,646.0949707031250000,5.1769261360168460,32.3773002624511700,10,3,54,129,62,2147703153,2147775107,2148743606,2148566651,2068,2,-5,7642
1341851041,6468,79.2699966430664000,5.2104997634887695,34.9919013977050800,359.6960144042969000,645.6467285156250000,5.1914792060852050,32.3734092712402340,16,3,56,122,62,2147715771,2147837800,2148954989,2148612282,1941,2,-6,30890
1341851103,6468,76.5800018310546900,5.2333998680114750,34.9928016662597660,359.3963012695312500,645.0546875000000000,5.2106881141662600,32.3724403381347660,16,3,60,125,62,2147738925,2147921128,2149238815,2148666500,1900,2,-6,48165
1341851167,6467,73.8099975585937500,5.2589001655578610,34.9956016540527340,359.1347961425781000,644.2781982421875000,5.2358818054199220,32.3669395446777340,22,3,63,130,62,2147755944,2147978115,2149392625,2148706157,1817,2,-4,60085
1341851229,6467,71.2200012207031200,5.2817001342773440,34.9971008300781250,358.8692932128906000,643.5695190429688000,5.2588710784912110,32.3630409240722660,16,3,71,129,62,2147782006,2148079730,2149713284,2148774211,1695,2,-6,21985
1341851293,6468,68.6600036621093800,5.3008999824523930,34.9978981018066400,358.7513122558594000,642.9324951171875000,5.2795300483703610,32.3555183410644500,16,3,72,132,62,2147822157,2148212109,2150141115,2148862976,1556,2,-6,43998
1341851355,6468,66.2399978637695300,5.3168997764587400,34.9972991943359400,358.6368103027344000,642.4705810546875000,5.2945060729980470,32.3508911132812500,16,3,76,136,61,2147842303,2148281078,2150310902,2148909805,1271,2,-5,22714
1341851446,6466,62.0600013732910160,5.3344998359680180,34.9963989257812500,358.5335083007812500,641.8848876953125000,5.3134942054748535,32.3439788818359400,14,3,82,175,62,2147918010,2148458601,2150749110,2149025581,1143,2,-6,13712
1341851508,6470,58.4300003051757800,5.3650999069213870,34.9962997436523440,358.3865051269531000,640.8734741210938000,5.3462729454040530,32.3305511474609400,22,3,110,155,62,2148023551,2148732694,2151489947,2149216556,822,2,-6,29093
1341851572,6469,54.7799987792968750,5.4257001876831055,34.9953002929687500,358.3197937011719000,638.6674804687500000,5.4177317619323730,32.2937698364257800,17,3,128,148,62,2148207075,2149206481,2152796274,2149542440,108,2,-6,58070
1341851634,6468,51.3400001525878900,5.4654998779296875,34.9971008300781250,358.8789978027344000,637.7664794921875000,5.4469032287597660,32.2597389221191400,16,3,123,155,62,2148414257,2149699529,2154143450,2149898089,3021,2,-6,58536
1341851698,6469,47.9500007629394500,5.5212001800537110,34.9972991943359400,359.0917968750000000,636.0009155273438000,5.5040440559387210,32.2218513488769500,16,3,112,151,62,2148830646,2150701366,2156930015,2150638226,2855,2,-6,49876
1341851760,6468,44.8100013732910160,5.6220998764038090,34.9966011047363300,359.7535095214844000,633.1851196289062000,5.5951018333435060,32.1509208679199200,20,3,130,159,62,2149312397,2151657951,2159332319,2151351954,2956,2,-6,54527
1341851824,6468,41.5099983215332000,5.6455998420715330,34.9989013671875000,361.1809082031250000,632.2728271484375000,5.6245880126953125,32.0895500183105500,16,3,136,163,62,2149362056,2151313420,2157744109,2151087899,2711,2,-6,36782
1341851886,6469,37.9399986267089840,5.6742000579833980,34.9985008239746100,361.9529113769531000,631.3773803710938000,5.6535148620605470,32.0491600036621100,22,3,148,181,62,2149815830,2151875241,2158554998,2151488415,2208,2,-6,30234
1341851950,6469,33.8300018310546900,5.7712001800537110,34.9959983825683600,362.9448852539062500,628.6705932617188000,5.7409229278564450,31.9705104827880860,20,3,185,220,63,2151152456,2154070157,2163298006,2153126605,1745,2,-6,54670
1341852012,6470,29.9200000762939450,5.9113001823425290,34.9924011230468750,366.7791137695312500,624.4166870117188000,5.8781337738037110,31.7764091491699220,43,3,385,368,63,2152867501,2156387784,2166982376,2154521343,1543,2,-6,19245
1341852100,6471,25.6900005340576170,6.1791000366210940,34.9879989624023440,378.5472106933594000,615.6417236328125000,6.1605968475341800,31.2658100128173830,75,3,398,547,64,2156936872,2161607569,2174686047,2157382417,1590,2,-4,35852
1341852162,6468,23.5900001525878900,6.3463001251220700,34.9875984191894500,384.7612915039062500,611.6218872070312000,6.2897357940673830,31.0132904052734380,89,3,396,612,64,2161817928,2168342651,2185705891,2161426531,1053,2,-5,45425
1341852250,6469,19.6700000762939450,6.5922999382019040,34.9854011535644500,392.5404968261719000,602.3865966796875000,6.5858268737792970,30.6332798004150400,117,3,285,903,63,2173779263,2182402573,2203928867,2168980822,187,2,-6,44666
1341852312,6473,16.1499996185302730,6.9987998008728030,34.9808006286621100,397.7315063476562500,590.3499755859375000,6.9705009460449220,30.2887592315673830,134,3,219,1064,64,2191059181,2201144338,2226032163,2178782888,264,1,-5,46937
1341852376,6470,13.1700000762939450,8.2328996658325200,34.9557991027832000,398.7130126953125000,551.3554077148438000,8.2076988220214840,29.6427993774414060,119,3,201,880,59,2207711337,2218157535,2244305106,2187834752,228,1,-5,6520
1341852438,6470,11.8299999237060550,9.4448003768920900,34.9687995910644500,394.2044982910156000,516.7443847656250000,9.2951946258544920,29.2414894104003900,110,3,196,739,62,2212780566,2223111647,2248856420,2190621032,3563,4,-5,8798
1341852541,6470,10.4600000381469730,10.3439998626708980,34.9749984741210940,382.9118957519531000,485.9475097656250000,10.2553396224975590,29.1059494018554700,91,3,195,747,61,2216084031,2225307542,2248453270,2191912182,962,1,-1,8020
1341852663,6469,8.3999996185302730,11.0204000473022460,34.9805984497070300,370.4827880859375000,461.5833129882812500,11.0104503631591800,29.1152000427246100,87,3,190,623,56,2226350490,2234476411,2254897229,2197773603,2252,3,-5,15317
1341852750,6469,5.5599999427795410,11.1926002502441400,34.9860992431640600,365.9101867675781000,455.6040039062500000,11.1951999664306640,29.1655006408691400,84,3,148,609,61,2263535624,2273840072,2296396474,2226624657,2156,-6,-8,39993
1341852810,6470,3.8499999046325684,0.0000000000000000,0.0000000000000000,363.9526062011719000,450.2738037109375000,11.3597297668457030,29.1482105255126950,87,3,129,643,60,2278620401,2288079533,2308605366,2240911967,2155,-5,-2,25554
1341852835,6469,2.8499999046325684,0.0000000000000000,0.0000000000000000,361.7322082519531000,443.8942871093750000,11.5564203262329100,29.1247806549072270,80,3,116,535,58,2293087757,2302858084,2323590472,2256601814,856,6,-4,65285
